EZY567K EGGP-EGAC

Flight info

Callsign EZY567K
Flight time 0h 32m
Altitude 24000
Route WAL M146 ERDUV Z198 MASOP M148 MAGEE
Aircraft A320/M-SDE2E3FGHIJ1RWXYZ/LB1

Departure

Time 2026-04-20 13:42
Airport Liverpool John Lennon Airport (EGGP)

Arrival

Time 2026-04-20 14:15
Airport George Best Belfast City Airport (EGAC)
Time Latitude Longitude Altitude Speed Heading
2026-04-20 13:20 53.33632 -2.85190 90 ft 0 kts 265°
2026-04-20 13:34 53.33632 -2.85175 90 ft 4 kts 265°
2026-04-20 13:34 53.33634 -2.85130 88 ft 4 kts 266°
2026-04-20 13:35 53.33636 -2.85095 88 ft 4 kts 255°
2026-04-20 13:35 53.33646 -2.85073 88 ft 3 kts 176°
2026-04-20 13:35 53.33668 -2.85076 89 ft 1 kts 175°
2026-04-20 13:35 53.33669 -2.85076 89 ft 0 kts 175°
2026-04-20 13:38 53.33645 -2.85073 88 ft 7 kts 175°
2026-04-20 13:38 53.33580 -2.85064 85 ft 11 kts 175°
2026-04-20 13:38 53.33522 -2.85135 89 ft 14 kts 265°
2026-04-20 13:39 53.33513 -2.85319 84 ft 18 kts 265°
2026-04-20 13:39 53.33503 -2.85545 84 ft 21 kts 265°
2026-04-20 13:39 53.33491 -2.85801 84 ft 24 kts 265°
2026-04-20 13:39 53.33478 -2.86090 84 ft 26 kts 265°
2026-04-20 13:40 53.33466 -2.86362 87 ft 20 kts 265°
2026-04-20 13:40 53.33452 -2.86623 69 ft 19 kts 263°
2026-04-20 13:40 53.33381 -2.86736 77 ft 16 kts 184°
2026-04-20 13:40 53.33293 -2.86637 72 ft 11 kts 112°
2026-04-20 13:41 53.33290 -2.86585 71 ft 0 kts 86°
2026-04-20 13:41 53.33290 -2.86583 71 ft 4 kts 86°
2026-04-20 13:41 53.33309 -2.86166 69 ft 75 kts 85°
2026-04-20 13:41 53.33367 -2.84904 85 ft 140 kts 85°
2026-04-20 13:42 53.33445 -2.83130 583 ft 155 kts 88°
2026-04-20 13:42 53.33702 -2.79308 1771 ft 185 kts 71°
2026-04-20 13:42 53.34440 -2.77444 2307 ft 204 kts 46°
2026-04-20 13:43 53.35679 -2.76135 3011 ft 215 kts 22°
2026-04-20 13:43 53.37158 -2.75691 3896 ft 221 kts 357°
2026-04-20 13:43 53.38617 -2.76422 4694 ft 227 kts 327°
2026-04-20 13:43 53.39736 -2.78329 5331 ft 242 kts 297°
2026-04-20 13:44 53.40139 -2.81153 5755 ft 263 kts 264°
2026-04-20 13:44 53.39618 -2.84130 6494 ft 272 kts 246°
2026-04-20 13:44 53.38960 -2.87131 7373 ft 277 kts 252°
2026-04-20 13:44 53.38520 -2.90287 8310 ft 280 kts 261°
2026-04-20 13:45 53.38354 -2.93554 9198 ft 284 kts 270°
2026-04-20 13:45 53.38456 -2.96871 10138 ft 287 kts 276°
2026-04-20 13:45 53.38874 -3.00136 10665 ft 301 kts 295°
2026-04-20 13:45 53.40134 -3.03012 11107 ft 314 kts 320°
2026-04-20 13:46 53.41870 -3.05287 11869 ft 319 kts 323°
2026-04-20 13:46 53.43586 -3.07664 12734 ft 322 kts 316°
2026-04-20 13:46 53.45162 -3.10362 13536 ft 325 kts 314°
2026-04-20 13:46 53.46741 -3.13096 14343 ft 328 kts 314°
2026-04-20 13:47 53.48330 -3.15861 15077 ft 330 kts 314°
2026-04-20 13:47 53.49930 -3.18644 15804 ft 332 kts 314°
2026-04-20 13:47 53.51517 -3.21405 16498 ft 334 kts 314°
2026-04-20 13:47 53.53140 -3.24226 17230 ft 337 kts 314°
2026-04-20 13:48 53.54773 -3.27064 17960 ft 339 kts 314°
2026-04-20 13:48 53.56421 -3.29928 18662 ft 342 kts 314°
2026-04-20 13:48 53.58077 -3.32808 19275 ft 344 kts 314°
2026-04-20 13:48 53.59744 -3.35716 19889 ft 346 kts 314°
2026-04-20 13:49 53.61420 -3.38647 20498 ft 348 kts 314°
2026-04-20 13:49 53.63108 -3.41592 21106 ft 351 kts 314°
2026-04-20 13:49 53.64807 -3.44558 21700 ft 353 kts 314°
2026-04-20 13:49 53.66515 -3.47555 22276 ft 355 kts 313°
2026-04-20 13:50 53.68207 -3.50530 22841 ft 358 kts 313°
2026-04-20 13:50 53.69941 -3.53576 23229 ft 363 kts 314°
2026-04-20 13:50 53.71705 -3.56676 23515 ft 368 kts 314°
2026-04-20 13:50 53.73485 -3.59808 23806 ft 371 kts 314°
2026-04-20 13:51 53.75272 -3.62957 24049 ft 372 kts 314°
2026-04-20 13:51 53.77065 -3.66123 24227 ft 373 kts 314°
2026-04-20 13:51 53.78857 -3.69292 24295 ft 372 kts 314°
2026-04-20 13:51 53.80638 -3.72449 24305 ft 371 kts 314°
2026-04-20 13:52 53.82418 -3.75610 24304 ft 371 kts 314°
2026-04-20 13:52 53.84170 -3.78730 24307 ft 370 kts 314°
2026-04-20 13:52 53.85946 -3.81890 24307 ft 370 kts 314°
2026-04-20 13:52 53.87724 -3.85053 24307 ft 370 kts 314°
2026-04-20 13:53 53.89500 -3.88215 24309 ft 370 kts 314°
2026-04-20 13:53 53.91274 -3.91380 24310 ft 371 kts 314°
2026-04-20 13:53 53.93048 -3.94552 24311 ft 371 kts 314°
2026-04-20 13:53 53.94826 -3.97733 24307 ft 371 kts 314°
2026-04-20 13:54 53.96602 -4.00913 24294 ft 372 kts 314°
2026-04-20 13:54 53.98381 -4.04104 24288 ft 372 kts 314°
2026-04-20 13:54 54.00130 -4.07265 24283 ft 372 kts 314°
2026-04-20 13:54 54.01900 -4.10476 24288 ft 372 kts 314°
2026-04-20 13:55 54.03668 -4.13687 24282 ft 372 kts 314°
2026-04-20 13:55 54.05441 -4.16904 24289 ft 372 kts 314°
2026-04-20 13:55 54.07210 -4.20118 24280 ft 372 kts 314°
2026-04-20 13:55 54.08980 -4.23339 24282 ft 372 kts 314°
2026-04-20 13:56 54.10747 -4.26565 24285 ft 372 kts 314°
2026-04-20 13:56 54.12515 -4.29796 24288 ft 373 kts 314°
2026-04-20 13:56 54.14259 -4.32982 24291 ft 373 kts 314°
2026-04-20 13:56 54.15960 -4.36320 24293 ft 373 kts 307°
2026-04-20 13:57 54.17453 -4.39943 24298 ft 373 kts 306°
2026-04-20 13:57 54.18945 -4.43578 24299 ft 374 kts 306°
2026-04-20 13:57 54.20438 -4.47211 24294 ft 374 kts 306°
2026-04-20 13:57 54.21927 -4.50840 24294 ft 374 kts 306°
2026-04-20 13:58 54.23418 -4.54477 24296 ft 373 kts 306°
2026-04-20 13:58 54.24907 -4.58104 24295 ft 373 kts 306°
2026-04-20 13:58 54.26398 -4.61737 24296 ft 373 kts 306°
2026-04-20 13:58 54.27869 -4.65332 24296 ft 373 kts 306°
2026-04-20 13:59 54.29351 -4.68980 24301 ft 373 kts 306°
2026-04-20 13:59 54.30829 -4.72634 24301 ft 373 kts 306°
2026-04-20 13:59 54.32310 -4.76302 24076 ft 373 kts 306°
2026-04-20 13:59 54.33781 -4.79947 23805 ft 371 kts 306°
2026-04-20 14:00 54.35246 -4.83578 23521 ft 370 kts 306°
2026-04-20 14:00 54.36708 -4.87202 23237 ft 368 kts 306°
2026-04-20 14:00 54.38161 -4.90807 22952 ft 367 kts 306°
2026-04-20 14:00 54.39592 -4.94352 22539 ft 365 kts 306°
2026-04-20 14:01 54.41030 -4.97928 22083 ft 363 kts 306°
2026-04-20 14:01 54.42457 -5.01491 21623 ft 361 kts 306°
2026-04-20 14:01 54.43879 -5.05038 21148 ft 359 kts 306°
2026-04-20 14:01 54.45294 -5.08554 20688 ft 357 kts 306°
2026-04-20 14:02 54.46708 -5.12050 20297 ft 352 kts 306°
2026-04-20 14:02 54.48089 -5.15460 20040 ft 344 kts 306°
2026-04-20 14:02 54.49446 -5.18806 19654 ft 339 kts 306°
2026-04-20 14:02 54.50892 -5.21992 19230 ft 336 kts 315°
2026-04-20 14:03 54.52654 -5.24596 18769 ft 333 kts 321°
2026-04-20 14:03 54.54196 -5.27538 18306 ft 333 kts 301°
2026-04-20 14:03 54.54958 -5.31224 17821 ft 334 kts 279°
2026-04-20 14:03 54.54833 -5.35209 17340 ft 337 kts 256°
2026-04-20 14:04 54.54030 -5.39000 16827 ft 338 kts 250°
2026-04-20 14:04 54.53049 -5.42736 16050 ft 347 kts 245°
2026-04-20 14:04 54.51929 -5.46418 15509 ft 347 kts 244°
2026-04-20 14:04 54.50799 -5.50087 15049 ft 346 kts 244°
2026-04-20 14:05 54.49679 -5.53729 14604 ft 344 kts 244°
2026-04-20 14:05 54.48569 -5.57347 14114 ft 339 kts 244°
2026-04-20 14:05 54.47474 -5.60916 13209 ft 336 kts 244°
2026-04-20 14:05 54.46408 -5.64400 12354 ft 332 kts 244°
2026-04-20 14:06 54.45343 -5.67899 11528 ft 328 kts 244°
2026-04-20 14:06 54.44292 -5.71356 10696 ft 325 kts 244°
2026-04-20 14:06 54.43250 -5.74783 9851 ft 322 kts 244°
2026-04-20 14:06 54.42223 -5.78172 9091 ft 315 kts 243°
2026-04-20 14:07 54.41260 -5.81379 8909 ft 291 kts 244°
2026-04-20 14:07 54.40355 -5.84407 8410 ft 281 kts 244°
2026-04-20 14:07 54.39471 -5.87363 7785 ft 277 kts 244°
2026-04-20 14:07 54.38813 -5.90427 7154 ft 272 kts 257°
2026-04-20 14:08 54.38400 -5.93546 6616 ft 272 kts 258°
2026-04-20 14:08 54.38017 -5.96704 6298 ft 267 kts 258°
2026-04-20 14:08 54.37818 -5.99808 6059 ft 259 kts 277°
2026-04-20 14:08 54.38364 -6.02653 5860 ft 244 kts 298°
2026-04-20 14:09 54.39266 -6.05031 5483 ft 235 kts 307°
2026-04-20 14:09 54.40267 -6.07220 4975 ft 232 kts 314°
2026-04-20 14:09 54.41581 -6.08751 4519 ft 226 kts 342°
2026-04-20 14:09 54.43079 -6.09104 4282 ft 214 kts
2026-04-20 14:10 54.44394 -6.08111 4077 ft 206 kts 40°
2026-04-20 14:10 54.45513 -6.06655 3835 ft 203 kts 36°
2026-04-20 14:10 54.46646 -6.05299 3597 ft 193 kts 36°
2026-04-20 14:10 54.47727 -6.04019 3319 ft 185 kts 36°
2026-04-20 14:11 54.48779 -6.02771 3055 ft 182 kts 37°
2026-04-20 14:11 54.49822 -6.01533 2823 ft 181 kts 37°
2026-04-20 14:11 54.50851 -6.00312 2569 ft 178 kts 36°
2026-04-20 14:11 54.51862 -5.99110 2318 ft 175 kts 37°
2026-04-20 14:12 54.52850 -5.97937 2080 ft 171 kts 36°
2026-04-20 14:12 54.53812 -5.96793 1846 ft 169 kts 37°
2026-04-20 14:12 54.54757 -5.95668 1623 ft 160 kts 36°
2026-04-20 14:12 54.55639 -5.94621 1429 ft 146 kts 36°
2026-04-20 14:13 54.56452 -5.93641 1220 ft 139 kts 38°
2026-04-20 14:13 54.57237 -5.92718 961 ft 134 kts 37°
2026-04-20 14:13 54.57987 -5.91821 800 ft 130 kts 37°
2026-04-20 14:13 54.58728 -5.90932 644 ft 128 kts 36°
2026-04-20 14:14 54.59458 -5.90058 477 ft 128 kts 35°
2026-04-20 14:14 54.60179 -5.89196 315 ft 127 kts 35°
2026-04-20 14:14 54.60905 -5.88328 133 ft 126 kts 34°
2026-04-20 14:14 54.61615 -5.87483 17 ft 116 kts 34°
2026-04-20 14:15 54.62098 -5.86906 16 ft 46 kts 34°
2026-04-20 14:15 54.62327 -5.86634 22 ft 31 kts 36°
2026-04-20 14:15 54.62414 -5.86498 21 ft 8 kts 52°
2026-04-20 14:15 54.62421 -5.86531 23 ft 8 kts 200°
2026-04-20 14:16 54.62329 -5.86634 22 ft 24 kts 216°
2026-04-20 14:16 54.62155 -5.86848 17 ft 35 kts 213°
2026-04-20 14:16 54.61953 -5.87084 16 ft 36 kts 215°
2026-04-20 14:16 54.61845 -5.87174 18 ft 12 kts 167°
2026-04-20 14:17 54.61791 -5.87070 20 ft 10 kts 124°
2026-04-20 14:17 54.61753 -5.86994 21 ft 11 kts 149°
2026-04-20 14:17 54.61682 -5.87046 21 ft 11 kts 215°
2026-04-20 14:17 54.61619 -5.87118 21 ft 10 kts 214°
2026-04-20 14:18 54.61569 -5.87178 21 ft 7 kts 211°
2026-04-20 14:18 54.61531 -5.87169 21 ft 5 kts 156°
2026-04-20 14:18 54.61506 -5.87149 22 ft 2 kts 156°
2026-04-20 14:18 54.61501 -5.87146 23 ft 0 kts 156°
2026-04-20 14:19 54.61499 -5.87145 23 ft 0 kts 156°